Pecos, TX

2:05 AM CDT on May 25, 2017 (GMT -0500)
Pecos Municipal

Weather History for KPEQ - December, 2012

Change the Weather History Date:

Wednesday, December 26, 2012

  Actual Average Record
Temperature  
Mean Temperature 32 °F -  
Max Temperature 42 °F 56 °F 82 °F (2005)
Min Temperature 22 °F 26 °F 9 °F (1983)
Degree Days  
Heating Degree Days 33    
Moisture  
Dew Point 13 °F    
Average Humidity 53    
Maximum Humidity 63    
Minimum Humidity 34    
Precipitation  
Precipitation 0.00 in - - ()
Sea Level Pressure  
Sea Level Pressure 30.12 in    
Wind  
Wind Speed 4 mph (NNE)    
Max Wind Speed 10 mph    
Max Gust Speed -    
Visibility 10 miles    
Events      
Averages and records for this station are not official NWS values.
T = Trace of Precipitation, MM = Missing Value Source: NWS Daily Summary

Daily Weather History Graph

Daily Weather History Graph

Search for Another Location

Airport or City:

Trip Planner

Search our weather history database for the weather conditions in past years. The results will help you decide how hot, cold, wet, or windy it might be!

Date:

Astronomy

Dec. 26, 2012 Rise Set
Actual Time 7:51 AM CST 5:58 PM CST
Civil Twilight 7:24 AM CST 6:25 PM CST
Nautical Twilight 6:54 AM CST 6:55 PM CST
Astronomical Twilight 6:24 AM CST 7:25 PM CST
Moon 4:52 PM CST (12/26) 6:18 AM CST (12/26)
Length of Visible Light 11h 00m
Length of Day
10h 07m
Waxing Gibbous, 97% of the Moon is Illuminated
Dec 26
Waxing Gibbous
Dec 28
Full
Jan 4
Last Quarter
Jan 11
New
Jan 18
First Quarter

Hourly Weather History & Observations

Time (CST) Temp. Windchill Dew Point Humidity Pressure Visibility Wind Dir Wind Speed Gust Speed Precip Events Conditions
12:15 AM 26.6 °F 20.0 °F 12.2 °F 55% 30.27 in 10.0 mi NNE 5.8 mph - N/A   Clear
12:35 AM 26.4 °F 19.8 °F 12.2 °F 55% 30.28 in 10.0 mi NNE 5.8 mph - N/A   Clear
12:55 AM 25.7 °F 20.1 °F 11.8 °F 56% 30.28 in 10.0 mi NE 4.6 mph - N/A   Clear
1:15 AM 25.2 °F 20.9 °F 11.8 °F 57% 30.28 in 10.0 mi NE 3.5 mph - N/A   Clear
1:35 AM 24.8 °F 20.5 °F 11.5 °F 57% 30.28 in 10.0 mi NE 3.5 mph - N/A   Clear
1:55 AM 23.7 °F - 11.1 °F 59% 30.28 in 10.0 mi Calm Calm - N/A   Clear
2:15 AM 24.1 °F - 11.3 °F 58% 30.28 in 10.0 mi Calm Calm - N/A   Clear
2:35 AM 23.9 °F 19.5 °F 11.7 °F 60% 30.27 in 10.0 mi NNE 3.5 mph - N/A   Clear
3:15 AM 24.6 °F 18.8 °F 11.7 °F 58% 30.26 in 10.0 mi NNE 4.6 mph - N/A   Clear
3:35 AM 24.8 °F 17.9 °F 11.7 °F 57% 30.26 in 10.0 mi NNE 5.8 mph - N/A   Clear
3:55 AM 24.8 °F 20.5 °F 11.8 °F 58% 30.26 in 10.0 mi North 3.5 mph - N/A   Clear
4:15 AM 24.8 °F 20.5 °F 11.8 °F 58% 30.26 in 10.0 mi North 3.5 mph - N/A   Clear
4:35 AM 24.8 °F 19.1 °F 12.0 °F 58% 30.24 in 10.0 mi North 4.6 mph - N/A   Clear
5:15 AM 24.8 °F 20.5 °F 12.0 °F 58% 30.24 in 10.0 mi North 3.5 mph - N/A   Clear
5:35 AM 24.3 °F 19.9 °F 11.7 °F 59% 30.24 in 10.0 mi WNW 3.5 mph - N/A   Clear
5:55 AM 24.4 °F 20.1 °F 11.8 °F 59% 30.23 in 10.0 mi NW 3.5 mph - N/A   Clear
6:15 AM 24.4 °F - 12.0 °F 59% 30.24 in 10.0 mi Calm Calm - N/A   Clear
6:35 AM 24.3 °F 19.9 °F 12.0 °F 60% 30.23 in 10.0 mi North 3.5 mph - N/A   Clear
6:55 AM 23.9 °F - 12.0 °F 61% 30.23 in 10.0 mi Calm Calm - N/A   Clear
7:15 AM 22.6 °F - 11.5 °F 62% 30.23 in 10.0 mi Calm Calm - N/A   Clear
7:35 AM 22.5 °F - 11.3 °F 62% 30.23 in 10.0 mi Calm Calm - N/A   Clear
7:55 AM 22.5 °F 17.8 °F 11.5 °F 63% 30.23 in 10.0 mi SSE 3.5 mph - N/A   Clear
8:15 AM 22.6 °F - 11.3 °F 62% 30.23 in 10.0 mi Calm Calm - N/A   Clear
8:35 AM 23.0 °F 18.4 °F 11.5 °F 61% 30.22 in 10.0 mi SSE 3.5 mph - N/A   Clear
8:55 AM 23.7 °F - 12.2 °F 61% 30.22 in 10.0 mi Calm Calm - N/A   Clear
9:15 AM 24.8 °F 20.5 °F 12.6 °F 60% 30.22 in 10.0 mi ENE 3.5 mph - N/A   Clear
9:35 AM 25.3 °F - 12.4 °F 58% 30.23 in 10.0 mi Calm Calm - N/A   Clear
9:55 AM 25.5 °F - 12.4 °F 58% 30.23 in 10.0 mi Calm Calm - N/A   Clear
10:15 AM 26.2 °F - 12.7 °F 57% 30.23 in 10.0 mi Calm Calm - N/A   Clear
10:35 AM 27.9 °F 24.0 °F 13.5 °F 55% 30.23 in 10.0 mi NE 3.5 mph - N/A   Clear
11:15 AM 30.2 °F - 13.6 °F 50% 30.22 in 10.0 mi Calm Calm - N/A   Clear
11:35 AM 30.2 °F 26.7 °F 13.6 °F 50% 30.21 in 10.0 mi NNE 3.5 mph - N/A   Clear
11:55 AM 30.4 °F 25.6 °F 13.8 °F 50% 30.19 in 10.0 mi North 4.6 mph - N/A   Clear
12:35 PM 32.5 °F - 14.0 °F 46% 30.14 in 10.0 mi Calm Calm - N/A   Clear
1:15 PM 34.3 °F 31.4 °F 14.5 °F 44% 30.11 in 10.0 mi NNE 3.5 mph - N/A   Clear
1:35 PM 36.3 °F 32.5 °F 14.5 °F 41% 30.09 in 10.0 mi East 4.6 mph - N/A   Clear
1:55 PM 36.9 °F - 14.4 °F 40% 30.06 in 10.0 mi Calm Calm - N/A   Clear
2:35 PM 39.0 °F 34.0 °F 14.7 °F 37% 30.04 in 10.0 mi East 6.9 mph - N/A   Clear
2:55 PM 39.4 °F - 14.5 °F 36% 30.03 in 10.0 mi Calm Calm - N/A   Clear
3:15 PM 40.1 °F - 14.7 °F 36% 30.01 in 10.0 mi Calm Calm - N/A   Clear
3:55 PM 42.3 °F 36.8 °F 15.4 °F 34% 29.98 in 10.0 mi East 9.2 mph - N/A   Clear
4:15 PM 41.7 °F 38.0 °F 15.1 °F 34% 29.98 in 10.0 mi ESE 5.8 mph - N/A   Clear
4:35 PM 41.0 °F 35.8 °F 15.6 °F 36% 29.97 in 10.0 mi East 8.1 mph - N/A   Clear
5:15 PM 41.9 °F 35.9 °F 15.8 °F 35% 29.96 in 10.0 mi ESE 10.4 mph - N/A   Clear
5:55 PM 39.4 °F 34.5 °F 15.6 °F 38% 29.95 in 10.0 mi East 6.9 mph - N/A   Clear
6:35 PM 36.3 °F 31.6 °F 15.4 °F 43% 29.95 in 10.0 mi East 5.8 mph - N/A   Clear
7:15 PM 33.3 °F 27.9 °F 14.9 °F 47% 29.95 in 10.0 mi East 5.8 mph - N/A   Clear
7:35 PM 32.9 °F 27.5 °F 14.9 °F 48% 29.93 in 10.0 mi ENE 5.8 mph - N/A   Clear
8:15 PM 34.7 °F 31.8 °F 16.5 °F 48% 29.92 in 10.0 mi NE 3.5 mph - N/A   Clear
8:55 PM 30.7 °F 24.9 °F 14.5 °F 51% 29.92 in 10.0 mi NW 5.8 mph - N/A   Clear
9:15 PM 29.3 °F 23.2 °F 14.2 °F 53% 29.92 in 10.0 mi NW 5.8 mph - N/A   Clear
9:35 PM 28.6 °F 22.4 °F 14.4 °F 55% 29.91 in 10.0 mi NNW 5.8 mph - N/A   Clear
9:55 PM 28.9 °F 23.9 °F 14.5 °F 55% 29.90 in 10.0 mi NNW 4.6 mph - N/A   Clear
10:15 PM 27.1 °F 21.8 °F 13.5 °F 56% 29.91 in 10.0 mi NW 4.6 mph - N/A   Clear
10:35 PM 26.1 °F 19.4 °F 13.1 °F 58% 29.91 in 10.0 mi NW 5.8 mph - N/A   Clear
10:55 PM 25.9 °F 21.7 °F 13.6 °F 60% 29.91 in 10.0 mi NW 3.5 mph - N/A   Clear
11:15 PM 24.8 °F 19.1 °F 13.1 °F 61% 29.91 in 10.0 mi NW 4.6 mph - N/A   Clear
11:35 PM 25.2 °F 20.9 °F 13.6 °F 62% 29.91 in 10.0 mi NNW 3.5 mph - N/A   Clear
11:55 PM 24.8 °F - 12.9 °F 61% 29.89 in 10.0 mi Calm Calm - N/A   Clear